| time (UTC) | temp F | wind direction | speed MPH | gust MPH | rain 1hr in | rain 24hr in | rain mn in | humidity % | barometer mb |
| 20260505040040 | 57 | 0 | 0.0 | 0.0 | 0.13 | 0.58 | 0.58 | 91 | 1002.6 |
| 20260505035529 | 56 | 0 | 0.0 | 0.0 | 0.17 | 0.58 | 0.58 | 91 | 1002.4 |
| 20260505035025 | 56 | 0 | 0.0 | 0.0 | 0.18 | 0.58 | 0.58 | 91 | 1002.7 |
| 20260505034542 | 56 | 0 | 0.0 | 0.0 | 0.18 | 0.58 | 0.58 | 91 | 1002.7 |
| 20260505034025 | 56 | 0 | 0.0 | 0.0 | 0.24 | 0.58 | 0.58 | 91 | 1002.6 |
| 20260505033525 | 56 | 0 | 0.0 | 0.0 | 0.30 | 0.58 | 0.58 | 91 | 1002.5 |
| 20260505033043 | 56 | 0 | 0.0 | 0.0 | 0.37 | 0.58 | 0.58 | 91 | 1002.7 |
| 20260505032524 | 56 | 0 | 0.0 | 0.0 | 0.48 | 0.58 | 0.58 | 90 | 1003.9 |
| 20260505032025 | 56 | 0 | 0.0 | 0.0 | 0.54 | 0.55 | 0.55 | 90 | 1004.3 |
| 20260505031552 | 56 | 0 | 0.0 | 0.0 | 0.52 | 0.52 | 0.52 | 90 | 1004.3 |
| 20260505031026 | 56 | 0 | 0.0 | 0.0 | 0.50 | 0.50 | 0.50 | 90 | 1004.3 |
| 20260505030525 | 56 | 0 | 0.0 | 0.0 | 0.49 | 0.49 | 0.49 | 89 | 1004.0 |
| 20260505030044 | 56 | 0 | 0.0 | 0.0 | 0.45 | 0.45 | 0.45 | 88 | 1004.5 |
| 20260505025522 | 57 | 0 | 0.0 | 0.0 | 0.41 | 0.41 | 0.41 | 88 | 1004.4 |
| 20260505025024 | 57 | 0 | 0.0 | 0.0 | 0.40 | 0.40 | 0.40 | 87 | 1004.2 |
| 20260505024548 | 57 | 0 | 0.0 | 0.0 | 0.39 | 0.39 | 0.39 | 86 | 1004.5 |
| 20260505024027 | 57 | 0 | 0.0 | 1.0 | 0.33 | 0.33 | 0.33 | 85 | 1004.6 |
| 20260505023525 | 58 | 0 | 0.0 | 1.0 | 0.28 | 0.28 | 0.28 | 83 | 1004.1 |
| 20260505023041 | 59 | 0 | 0.0 | 3.0 | 0.19 | 0.19 | 0.19 | 79 | 1004.6 |
| 20260505022525 | 61 | 0 | 0.0 | 6.0 | 0.09 | 0.09 | 0.09 | 73 | 1004.5 |
| 20260505022025 | 64 | 0 | 0.0 | 9.0 | 0.00 | 0.00 | 0.00 | 65 | 1004.4 |
| 20260505021540 | 67 | 287 | 1.0 | 9.0 | 0.00 | 0.00 | 0.00 | 59 | 1004.1 |
| 20260505021027 | 69 | 287 | 3.0 | 11.0 | 0.00 | 0.00 | 0.00 | 54 | 1003.9 |
| 20260505020525 | 70 | 287 | 4.0 | 11.0 | 0.00 | 0.00 | 0.00 | 60 | 1001.6 |
| 20260505020041 | 70 | 287 | 3.0 | 10.0 | 0.00 | 0.00 | 0.00 | 60 | 1001.4 |
| 20260505015525 | 70 | 0 | 5.0 | 10.0 | 0.00 | 0.00 | 0.00 | 61 | 1001.3 |
| 20260505015025 | 70 | 287 | 4.0 | 8.0 | 0.00 | 0.00 | 0.00 | 61 | 1001.4 |
| 20260505014559 | 70 | 287 | 2.0 | 10.0 | 0.00 | 0.00 | 0.00 | 61 | 1001.5 |
| 20260505014025 | 70 | 287 | 2.0 | 10.0 | 0.00 | 0.00 | 0.00 | 61 | 1001.5 |
| 20260505013521 | 70 | 0 | 3.0 | 9.0 | 0.00 | 0.00 | 0.00 | 61 | 1001.5 |
| 20260505013036 | 70 | 287 | 3.0 | 8.0 | 0.00 | 0.00 | 0.00 | 61 | 1001.2 |
| 20260505012526 | 70 | 287 | 4.0 | 9.0 | 0.00 | 0.00 | 0.00 | 61 | 1001.2 |
| 20260505012026 | 70 | 287 | 2.0 | 9.0 | 0.00 | 0.00 | 0.00 | 61 | 1001.1 |
| 20260505011550 | 70 | 287 | 1.0 | 9.0 | 0.00 | 0.00 | 0.00 | 61 | 1001.0 |
| 20260505011025 | 70 | 0 | 3.0 | 9.0 | 0.00 | 0.00 | 0.00 | 60 | 1000.8 |
| 20260505010525 | 70 | 287 | 4.0 | 10.0 | 0.00 | 0.00 | 0.00 | 60 | 1000.8 |
| 20260505010040 | 70 | 287 | 3.0 | 10.0 | 0.00 | 0.00 | 0.00 | 60 | 1000.8 |
| 20260505005525 | 71 | 287 | 5.0 | 10.0 | 0.00 | 0.00 | 0.00 | 60 | 1000.8 |
| 20260505005027 | 71 | 287 | 3.0 | 10.0 | 0.00 | 0.00 | 0.00 | 60 | 1000.7 |
| 20260505004540 | 71 | 287 | 4.0 | 10.0 | 0.00 | 0.00 | 0.00 | 60 | 1000.6 |
| 20260505004026 | 71 | 287 | 1.0 | 9.0 | 0.00 | 0.00 | 0.00 | 59 | 1000.5 |
| 20260505003530 | 71 | 287 | 2.0 | 9.0 | 0.00 | 0.00 | 0.00 | 58 | 1000.6 |
| 20260505003039 | 71 | 287 | 4.0 | 12.0 | 0.00 | 0.00 | 0.00 | 58 | 1000.5 |
| 20260505002526 | 71 | 287 | 5.0 | 12.0 | 0.00 | 0.00 | 0.00 | 57 | 1000.6 |
| 20260505002026 | 72 | 287 | 5.0 | 9.0 | 0.00 | 0.00 | 0.00 | 57 | 1000.7 |
| 20260505001543 | 72 | 287 | 3.0 | 12.0 | 0.00 | 0.00 | 0.00 | 57 | 1000.8 |
| 20260505001026 | 72 | 287 | 3.0 | 13.0 | 0.00 | 0.00 | 0.00 | 56 | 1000.8 |
| 20260505000526 | 72 | 287 | 5.0 | 13.0 | 0.00 | 0.00 | 0.00 | 55 | 1000.7 |
| 20260505000052 | 73 | 287 | 5.0 | 11.0 | 0.00 | 0.00 | 0.00 | 55 | 1000.5 |
| 20260504235528 | 73 | 287 | 6.0 | 11.0 | 0.00 | 0.00 | 0.00 | 55 | 1000.5 |
| 20260504235027 | 73 | 287 | 6.0 | 13.0 | 0.00 | 0.00 | 0.00 | 54 | 1000.5 |
| 20260504234542 | 74 | 287 | 7.0 | 15.0 | 0.00 | 0.00 | 0.00 | 53 | 1000.4 |
| 20260504234027 | 74 | 287 | 8.0 | 15.0 | 0.00 | 0.00 | 0.00 | 53 | 1000.4 |
| 20260504233527 | 75 | 287 | 6.0 | 13.0 | 0.00 | 0.00 | 0.00 | 53 | 1000.4 |
| 20260504233041 | 75 | 287 | 7.0 | 17.0 | 0.00 | 0.00 | 0.00 | 52 | 1000.5 |
| 20260504232530 | 75 | 287 | 8.0 | 17.0 | 0.00 | 0.00 | 0.00 | 51 | 1000.5 |
| 20260504232026 | 75 | 287 | 8.0 | 15.0 | 0.00 | 0.00 | 0.00 | 51 | 1000.5 |
| 20260504231541 | 75 | 287 | 9.0 | 15.0 | 0.00 | 0.00 | 0.00 | 50 | 1000.5 |
| 20260504231026 | 76 | 287 | 7.0 | 15.0 | 0.00 | 0.00 | 0.00 | 50 | 1000.5 |
| 20260504230526 | 76 | 287 | 7.0 | 16.0 | 0.00 | 0.00 | 0.00 | 50 | 1000.5 |
| 20260504230045 | 76 | 287 | 8.0 | 16.0 | 0.00 | 0.00 | 0.00 | 49 | 1000.7 |
| 20260504225527 | 76 | 287 | 9.0 | 16.0 | 0.00 | 0.00 | 0.00 | 49 | 1000.7 |
| 20260504225026 | 76 | 287 | 6.0 | 13.0 | 0.00 | 0.00 | 0.00 | 49 | 1000.9 |
| 20260504224545 | 76 | 287 | 7.0 | 15.0 | 0.00 | 0.00 | 0.00 | 49 | 1001.0 |
| 20260504224026 | 76 | 287 | 8.0 | 15.0 | 0.00 | 0.00 | 0.00 | 49 | 1001.0 |
| 20260504223526 | 76 | 287 | 9.0 | 15.0 | 0.00 | 0.00 | 0.00 | 48 | 1001.0 |
| 20260504223041 | 76 | 287 | 8.0 | 15.0 | 0.00 | 0.00 | 0.00 | 48 | 1001.2 |
| 20260504222526 | 76 | 287 | 8.0 | 15.0 | 0.00 | 0.00 | 0.00 | 47 | 1001.2 |
| 20260504222030 | 77 | 287 | 8.0 | 17.0 | 0.00 | 0.00 | 0.00 | 47 | 1001.2 |
| 20260504221540 | 77 | 287 | 9.0 | 17.0 | 0.00 | 0.00 | 0.00 | 47 | 1001.4 |
| 20260504221027 | 77 | 287 | 9.0 | 16.0 | 0.00 | 0.00 | 0.00 | 47 | 1001.4 |
| 20260504220527 | 77 | 287 | 8.0 | 18.0 | 0.00 | 0.00 | 0.00 | 46 | 1001.5 |
| 20260504220040 | 77 | 287 | 8.0 | 18.0 | 0.00 | 0.00 | 0.00 | 46 | 1001.4 |
| 20260504215528 | 78 | 287 | 9.0 | 18.0 | 0.00 | 0.00 | 0.00 | 45 | 1001.4 |
| 20260504215027 | 78 | 287 | 10.0 | 18.0 | 0.00 | 0.00 | 0.00 | 45 | 1001.5 |
| 20260504214542 | 78 | 287 | 8.0 | 16.0 | 0.00 | 0.00 | 0.00 | 45 | 1001.6 |
| 20260504214028 | 78 | 287 | 11.0 | 16.0 | 0.00 | 0.00 | 0.00 | 45 | 1001.7 |
| 20260504213522 | 78 | 287 | 8.0 | 17.0 | 0.00 | 0.00 | 0.00 | 45 | 1001.8 |
| 20260504213035 | 78 | 287 | 11.0 | 17.0 | 0.00 | 0.00 | 0.00 | 45 | 1001.8 |
| 20260504212524 | 78 | 287 | 9.0 | 15.0 | 0.00 | 0.00 | 0.00 | 45 | 1001.8 |
| 20260504212028 | 78 | 287 | 9.0 | 14.0 | 0.00 | 0.00 | 0.00 | 45 | 1001.8 |
| 20260504211543 | 78 | 287 | 9.0 | 14.0 | 0.00 | 0.00 | 0.00 | 44 | 1001.9 |
| 20260504211024 | 78 | 287 | 9.0 | 17.0 | 0.00 | 0.00 | 0.00 | 45 | 1001.9 |
| 20260504210525 | 78 | 287 | 9.0 | 17.0 | 0.00 | 0.00 | 0.00 | 44 | 1001.8 |
| 20260504210055 | 78 | 287 | 9.0 | 17.0 | 0.00 | 0.00 | 0.00 | 44 | 1001.9 |
| 20260504205524 | 78 | 287 | 8.0 | 16.0 | 0.00 | 0.00 | 0.00 | 44 | 1002.0 |
| 20260504205024 | 78 | 287 | 8.0 | 15.0 | 0.00 | 0.00 | 0.00 | 44 | 1001.9 |
| 20260504204553 | 79 | 287 | 7.0 | 15.0 | 0.00 | 0.00 | 0.00 | 44 | 1001.9 |
| 20260504204025 | 79 | 287 | 9.0 | 17.0 | 0.00 | 0.00 | 0.00 | 43 | 1002.0 |
| 20260504203524 | 79 | 287 | 9.0 | 17.0 | 0.00 | 0.00 | 0.00 | 42 | 1002.0 |
| 20260504203038 | 79 | 287 | 8.0 | 15.0 | 0.00 | 0.00 | 0.00 | 44 | 1001.9 |
| 20260504202525 | 79 | 287 | 9.0 | 16.0 | 0.00 | 0.00 | 0.00 | 43 | 1001.9 |
| 20260504202024 | 79 | 287 | 8.0 | 16.0 | 0.00 | 0.00 | 0.00 | 43 | 1002.0 |
| 20260504201539 | 79 | 287 | 9.0 | 16.0 | 0.00 | 0.00 | 0.00 | 42 | 1002.1 |
| 20260504201024 | 79 | 287 | 9.0 | 15.0 | 0.00 | 0.00 | 0.00 | 43 | 1002.0 |
| 20260504200525 | 80 | 287 | 8.0 | 14.0 | 0.00 | 0.00 | 0.00 | 42 | 1002.3 |
| 20260504200043 | 80 | 287 | 8.0 | 16.0 | 0.00 | 0.00 | 0.00 | 43 | 1002.2 |
| 20260504195523 | 79 | 287 | 8.0 | 16.0 | 0.00 | 0.00 | 0.00 | 43 | 1002.2 |
| 20260504195022 | 80 | 287 | 7.0 | 15.0 | 0.00 | 0.00 | 0.00 | 43 | 1002.3 |
| 20260504194540 | 80 | 287 | 7.0 | 12.0 | 0.00 | 0.00 | 0.00 | 42 | 1002.3 |
| 20260504194024 | 80 | 287 | 6.0 | 12.0 | 0.00 | 0.00 | 0.00 | 42 | 1002.3 |
| 20260504193525 | 80 | 287 | 3.0 | 13.0 | 0.00 | 0.00 | 0.00 | 42 | 1002.4 |
| 20260504193040 | 80 | 287 | 7.0 | 13.0 | 0.00 | 0.00 | 0.00 | 42 | 1002.4 |
| 20260504192524 | 79 | 287 | 7.0 | 13.0 | 0.00 | 0.00 | 0.00 | 41 | 1002.5 |
| 20260504192024 | 79 | 287 | 5.0 | 14.0 | 0.00 | 0.00 | 0.00 | 43 | 1002.4 |
| 20260504191539 | 79 | 287 | 8.0 | 14.0 | 0.00 | 0.00 | 0.00 | 41 | 1002.6 |
| 20260504191027 | 79 | 287 | 8.0 | 14.0 | 0.00 | 0.00 | 0.00 | 41 | 1002.6 |
| 20260504190525 | 78 | 287 | 7.0 | 13.0 | 0.00 | 0.00 | 0.00 | 42 | 1002.7 |
| 20260504190038 | 78 | 287 | 4.0 | 11.0 | 0.00 | 0.00 | 0.00 | 43 | 1002.8 |
| 20260504185524 | 78 | 287 | 5.0 | 13.0 | 0.00 | 0.00 | 0.00 | 42 | 1002.9 |
| 20260504185028 | 77 | 287 | 2.0 | 13.0 | 0.00 | 0.00 | 0.00 | 43 | 1002.9 |
| 20260504184543 | 77 | 287 | 8.0 | 13.0 | 0.00 | 0.00 | 0.00 | 44 | 1003.0 |
| 20260504184024 | 76 | 287 | 6.0 | 12.0 | 0.00 | 0.00 | 0.00 | 45 | 1003.1 |
| 20260504183526 | 76 | 287 | 5.0 | 12.0 | 0.00 | 0.00 | 0.00 | 48 | 1003.0 |
| 20260504183040 | 76 | 287 | 6.0 | 13.0 | 0.00 | 0.00 | 0.00 | 49 | 1003.1 |
| 20260504182521 | 75 | 287 | 7.0 | 13.0 | 0.00 | 0.00 | 0.00 | 48 | 1003.0 |
| 20260504182027 | 75 | 287 | 5.0 | 12.0 | 0.00 | 0.00 | 0.00 | 51 | 1003.0 |
| 20260504181540 | 74 | 287 | 5.0 | 13.0 | 0.00 | 0.00 | 0.00 | 52 | 1003.1 |
| 20260504181028 | 74 | 287 | 6.0 | 16.0 | 0.00 | 0.00 | 0.00 | 50 | 1003.2 |
| 20260504180527 | 74 | 287 | 9.0 | 16.0 | 0.00 | 0.00 | 0.00 | 48 | 1003.2 |
| 20260504180039 | 76 | 287 | 8.0 | 14.0 | 0.00 | 0.00 | 0.00 | 47 | 1003.3 |
| 20260504175526 | 76 | 287 | 7.0 | 16.0 | 0.00 | 0.00 | 0.00 | 47 | 1003.3 |
| 20260504175026 | 76 | 287 | 9.0 | 16.0 | 0.00 | 0.00 | 0.00 | 47 | 1003.2 |
| 20260504174538 | 76 | 287 | 8.0 | 15.0 | 0.00 | 0.00 | 0.00 | 46 | 1003.1 |
| 20260504174027 | 76 | 287 | 6.0 | 15.0 | 0.00 | 0.00 | 0.00 | 46 | 1003.3 |
| 20260504173525 | 76 | 287 | 8.0 | 15.0 | 0.00 | 0.00 | 0.00 | 46 | 1003.3 |
| 20260504173041 | 76 | 287 | 6.0 | 14.0 | 0.00 | 0.00 | 0.00 | 45 | 1003.6 |
| 20260504172526 | 76 | 287 | 8.0 | 14.0 | 0.00 | 0.00 | 0.00 | 44 | 1003.5 |
| 20260504172027 | 76 | 287 | 6.0 | 17.0 | 0.00 | 0.00 | 0.00 | 44 | 1003.5 |
| 20260504171539 | 76 | 287 | 10.0 | 17.0 | 0.00 | 0.00 | 0.00 | 44 | 1003.5 |
| 20260504171031 | 75 | 287 | 7.0 | 17.0 | 0.00 | 0.00 | 0.00 | 45 | 1003.7 |
| 20260504170526 | 76 | 287 | 6.0 | 17.0 | 0.00 | 0.00 | 0.00 | 44 | 1003.7 |
| 20260504151026 | 71 | 287 | 5.0 | 11.0 | 0.00 | 0.00 | 0.00 | 54 | 1004.3 |
| 20260504150526 | 71 | 287 | 6.0 | 11.0 | 0.00 | 0.00 | 0.00 | 55 | 1004.2 |
| 20260504141026 | 66 | 287 | 4.0 | 9.0 | 0.00 | 0.00 | 0.00 | 65 | 1004.6 |
| 20260504140526 | 66 | 287 | 3.0 | 9.0 | 0.00 | 0.00 | 0.00 | 65 | 1004.8 |
| 20260504130528 | 61 | 287 | 3.0 | 10.0 | 0.00 | 0.00 | 0.00 | 71 | 1005.7 |
| 20260504110526 | 52 | 0 | 0.0 | 0.0 | 0.00 | 0.00 | 0.00 | 83 | 1006.2 |
| 20260504100526 | 52 | 0 | 0.0 | 2.0 | 0.00 | 0.00 | 0.00 | 83 | 1006.4 |
| 20260504081541 | 53 | 0 | 0.0 | 6.0 | 0.00 | 0.00 | 0.00 | 81 | 1006.7 |
| 20260504081026 | 53 | 287 | 0.0 | 6.0 | 0.00 | 0.00 | 0.00 | 81 | 1006.9 |
| 20260504080523 | 53 | 0 | 0.0 | 4.0 | 0.00 | 0.00 | 0.00 | 81 | 1006.9 |
| 20260504050522 | 53 | 0 | 0.0 | 0.0 | 0.00 | 0.00 | 0.00 | 73 | 1008.4 |
| 20260504045525 | 53 | 0 | 0.0 | 0.0 | 0.00 | 0.00 | 0.00 | 72 | 1008.4 |
| 20260504045025 | 54 | 0 | 0.0 | 0.0 | 0.00 | 0.00 | 0.00 | 71 | 1008.5 |
| 20260504044538 | 54 | 0 | 0.0 | 0.0 | 0.00 | 0.00 | 0.00 | 71 | 1008.4 |
| 20260504044025 | 54 | 0 | 0.0 | 1.0 | 0.00 | 0.00 | 0.00 | 71 | 1008.4 |
| 20260504043527 | 54 | 0 | 0.0 | 1.0 | 0.00 | 0.00 | 0.00 | 71 | 1008.5 |
| 20260504043048 | 54 | 0 | 0.0 | 0.0 | 0.00 | 0.00 | 0.00 | 71 | 1008.5 |
| 20260504042526 | 54 | 0 | 0.0 | 0.0 | 0.00 | 0.00 | 0.00 | 70 | 1008.5 |
| 20260504042025 | 54 | 0 | 0.0 | 0.0 | 0.00 | 0.00 | 0.00 | 70 | 1008.5 |
| 20260504041544 | 54 | 0 | 0.0 | 0.0 | 0.00 | 0.00 | 0.00 | 69 | 1008.5 |
| 20260504041025 | 55 | 0 | 0.0 | 0.0 | 0.00 | 0.00 | 0.00 | 69 | 1008.6 |
| 20260504040527 | 55 | 0 | 0.0 | 0.0 | 0.00 | 0.00 | 0.00 | 69 | 1008.5 |